Preview of NWS' New Version of Forecast
This preview is not operational and should not be used for support decisions.

Regional Weather Roundup (RWR)

Issued by National Weather Service (NWS)

                            
000
ASUS43 KTOP 190359
RWRKS 

WEATHER ROUNDUP FOR KANSAS
NATIONAL WEATHER SERVICE GOODLAND KS
1000 PM CST MON FEB 18 2019

NOTE:  "FAIR" INDICATES FEW OR NO CLOUDS BELOW 12,000 FEET WITH NO
SIGNIFICANT WEATHER AND/OR OBSTRUCTIONS TO VISIBILITY.

KSZ001>006-013>018-027>032-041>047-190500-
NORTHWEST KANSAS
  
CITY           SKY/WX    TMP DP  RH WIND       PRES   REMARKS
GOODLAND       FLURRIES  15  12  88 SE12      30.25S WCI   2          
HAYS           CLOUDY    11   9  92 NE5       30.44R                  
HILL CITY      CLEAR     11   8  88 E5        30.41S                  
RUSSELL        CLOUDY    12  10  92 NE6       30.43R                  
$$

KSZ061>065-074>080-084>089-190500-
SOUTHWEST KANSAS
  
CITY           SKY/WX    TMP DP  RH WIND       PRES   REMARKS
DODGE CITY     CLOUDY    17  11  77 E8        30.35R                  
GARDEN CITY    CLOUDY    12  10  92 E9        30.32R                  
GREAT BEND     CLOUDY    17  13  84 NE8       30.43S                  
LIBERAL        CLOUDY    17  11  77 E12       30.32R WCI   4          
$$

KSZ066>073-081>083-090>101-190500-
SOUTHEAST KANSAS
  
CITY           SKY/WX    TMP DP  RH WIND       PRES   REMARKS
CHANUTE        CLOUDY    27  17  66 NE13      30.48S WCI  16          
COFFEYVILLE    MOCLDY    27  19  72 NE12      30.48R WCI  17          
HUTCHINSON     CLOUDY    21  17  84 NE3       30.45R                  
MEDICINE LODGE   N/A     23  14  68 NE7       30.42S                  
PARSONS        CLOUDY    26  18  71 VRB6      30.50R                  
WICHITA INTL   CLOUDY    25  18  74 NE8       30.45R                  
WICHITA JABRA  CLOUDY    24  16  71 E8        30.45R                  
WICHITA MCCONL CLOUDY    26  16  66 E9        30.44R                  
WINFIELD       CLOUDY    27  16  63 E8        30.47R                  
$$

KSZ007>012-019>026-033>040-048>060-102>105-190500-
NORTHEAST KANSAS
  
CITY           SKY/WX    TMP DP  RH WIND       PRES   REMARKS
CONCORDIA      CLOUDY    12   9  87 E5        30.47F                  
EMPORIA        CLOUDY    20  16  84 NE7       30.48S                  
LAWRENCE       CLOUDY    19  13  77 NE3       30.54R                  
MANHATTAN      CLOUDY    21  15  78 NE9       30.51F                  
OLATHE IND     CLOUDY    20  15  81 NE3       30.52R                  
OLATHE EXE     CLOUDY    21  13  71 NE5       30.52R                  
SALINA         CLOUDY    19  14  81 NE6       30.50R                  
TOPEKA BILLARD PTCLDY    20  13  74 NE5       30.54R                  
TOPEKA FORBES  CLOUDY    19  14  81 N5        30.51S                  
$$